"Period start","avg(HW err(1)/warn(2) (#))","avg(Visibility (m))","avg(Weather code (#))","avg(Precip intensity (mm/h))","min(HW err(1)/warn(2) (#))","max(HW err(1)/warn(2) (#))","std(HW err(1)/warn(2) (#))","med(HW err(1)/warn(2) (#))","min(Visibility (m))","max(Visibility (m))","std(Visibility (m))","med(Visibility (m))","min(Weather code (#))","max(Weather code (#))","std(Weather code (#))","med(Weather code (#))","min(Precip intensity (mm/h))","max(Precip intensity (mm/h))","std(Precip intensity (mm/h))","med(Precip intensity (mm/h))"
2013-10-13 00:00:00,2,32326,0,0.00,2,2,0,2,19423,50000,10749,31382,0,0,0,0,0.00,0.00,0.00,0.00
2013-10-13 00:10:00,2,22423,0,0.00,2,2,0,2,18375,29507,3805,21010,0,0,0,0,0.00,0.00,0.00,0.00
2013-10-13 00:20:00,2,17106,0,0.00,2,2,0,2,11454,29552,5917,14642,0,0,0,0,0.00,0.00,0.00,0.00
2013-10-13 00:30:00,2,8326,3,0.00,2,2,0,2,5613,12390,2375,8022,0,10,5,0,0.00,0.00,0.00,0.00
2013-10-13 00:40:00,2,6755,10,0.00,2,2,0,2,4762,9227,1459,6320,10,10,0,10,0.00,0.00,0.00,0.00
2013-10-13 00:50:00,2,7744,10,0.00,2,2,0,2,5254,11208,1718,7252,10,10,0,10,0.00,0.00,0.00,0.00
2013-10-13 01:00:00,2,9125,10,0.00,2,2,0,2,5316,13668,2688,8934,10,10,0,10,0.00,0.00,0.00,0.00
2013-10-13 01:10:00,2,12281,8,0.00,2,2,0,2,8242,15674,2479,13262,0,10,4,10,0.00,0.00,0.00,0.00
2013-10-13 01:20:00,2,28979,0,0.00,2,2,0,2,17283,46664,9218,26390,0,0,0,0,0.00,0.00,0.00,0.00
2013-10-13 01:30:00,2,26100,0,0.00,2,2,0,2,12612,44203,11468,21335,0,0,0,0,0.00,0.00,0.00,0.00
2013-10-13 01:40:00,2,15897,0,0.00,2,2,0,2,10145,25754,4503,14728,0,0,0,0,0.00,0.00,0.00,0.00
2013-10-13 01:50:00,2,17812,0,0.00,2,2,0,2,12143,37083,6851,15957,0,0,0,0,0.00,0.00,0.00,0.00
2013-10-13 02:00:00,2,31696,0,0.00,2,2,0,2,24273,46274,6592,30571,0,0,0,0,0.00,0.00,0.00,0.00
2013-10-13 02:10:00,2,36710,0,0.00,2,2,0,2,25116,50000,9315,35208,0,0,0,0,0.00,0.00,0.00,0.00
2013-10-13 02:20:00,2,44075,0,0.00,2,2,0,2,34228,50000,6510,47002,0,0,0,0,0.00,0.00,0.00,0.00
2013-10-13 02:30:00,2,39435,0,0.00,2,2,0,2,26444,49923,7623,40651,0,0,0,0,0.00,0.00,0.00,0.00
2013-10-13 02:40:00,2,38718,0,0.00,2,2,0,2,27138,46734,6421,39496,0,0,0,0,0.00,0.00,0.00,0.00
2013-10-13 02:50:00,2,40167,0,0.00,2,2,0,2,28245,49545,7110,40392,0,0,0,0,0.00,0.00,0.00,0.00
2013-10-13 03:00:00,2,46472,0,0.00,2,2,0,2,38600,50000,4052,48932,0,0,0,0,0.00,0.00,0.00,0.00
2013-10-13 03:10:00,2,46707,0,0.00,2,2,0,2,39811,50000,4053,49863,0,0,0,0,0.00,0.00,0.00,0.00
2013-10-13 03:20:00,2,47854,0,0.00,2,2,0,2,40786,50000,3434,49865,0,0,0,0,0.00,0.00,0.00,0.00
2013-10-13 03:30:00,2,49080,0,0.00,2,2,0,2,42309,50000,2301,50000,0,0,0,0,0.00,0.00,0.00,0.00
2013-10-13 03:40:00,2,38224,0,0.00,2,2,0,2,21143,49079,9636,41454,0,0,0,0,0.00,0.00,0.00,0.00
2013-10-13 03:50:00,2,42908,0,0.00,2,2,0,2,31142,50000,5004,43402,0,0,0,0,0.00,0.00,0.00,0.00
2013-10-13 04:00:00,2,48642,0,0.00,2,2,0,2,44042,50000,2112,50000,0,0,0,0,0.00,0.00,0.00,0.00
2013-10-13 04:10:00,2,40598,0,0.00,2,2,0,2,21344,50000,9591,43146,0,0,0,0,0.00,0.00,0.00,0.00
2013-10-13 04:20:00,2,44401,0,0.00,2,2,0,2,36936,50000,4321,44744,0,0,0,0,0.00,0.00,0.00,0.00
2013-10-13 04:30:00,2,45853,0,0.00,2,2,0,2,40043,50000,3583,44913,0,0,0,0,0.00,0.00,0.00,0.00
2013-10-13 04:40:00,2,46550,0,0.00,2,2,0,2,35816,50000,4398,48684,0,0,0,0,0.00,0.00,0.00,0.00
2013-10-13 04:50:00,2,45460,0,0.00,2,2,0,2,37842,50000,4231,45116,0,0,0,0,0.00,0.00,0.00,0.00
2013-10-13 05:00:00,2,47441,0,0.00,2,2,0,2,44885,50000,2320,47246,0,0,0,0,0.00,0.00,0.00,0.00
2013-10-13 05:10:00,2,48136,0,0.00,2,2,0,2,42694,50000,2922,50000,0,0,0,0,0.00,0.00,0.00,0.00
2013-10-13 05:20:00,2,48928,0,0.00,2,2,0,2,44354,50000,1876,50000,0,0,0,0,0.00,0.00,0.00,0.00
2013-10-13 05:30:00,2,41742,0,0.00,2,2,0,2,25993,50000,7502,43990,0,0,0,0,0.00,0.00,0.00,0.00
2013-10-13 05:40:00,2,42494,0,0.00,2,2,0,2,34414,49458,5780,43164,0,0,0,0,0.00,0.00,0.00,0.00
2013-10-13 05:50:00,2,49011,0,0.00,2,2,0,2,46639,50000,1345,50000,0,0,0,0,0.00,0.00,0.00,0.00
2013-10-13 06:00:00,2,49465,0,0.00,2,2,0,2,46737,50000,1102,50000,0,0,0,0,0.00,0.00,0.00,0.00
2013-10-13 06:10:00,2,49716,0,0.00,2,2,0,2,48360,50000,576,50000,0,0,0,0,0.00,0.00,0.00,0.00
2013-10-13 06:20:00,2,49904,0,0.00,2,2,0,2,49045,50000,286,50000,0,0,0,0,0.00,0.00,0.00,0.00
2013-10-13 06:30:00,2,49562,0,0.00,2,2,0,2,46534,50000,1046,50000,0,0,0,0,0.00,0.00,0.00,0.00
2013-10-13 06:40:00,2,49930,0,0.00,2,2,0,2,49296,50000,211,50000,0,0,0,0,0.00,0.00,0.00,0.00
2013-10-13 06:50:00,2,46400,0,0.00,2,2,0,2,39151,50000,3535,47592,0,0,0,0,0.00,0.00,0.00,0.00
2013-10-13 07:00:00,2,47868,0,0.00,2,2,0,2,42202,50000,2364,48536,0,0,0,0,0.00,0.00,0.00,0.00
2013-10-13 07:10:00,2,49737,0,0.00,2,2,0,2,48472,50000,535,50000,0,0,0,0,0.00,0.00,0.00,0.00
2013-10-13 07:20:00,2,41316,0,0.00,2,2,0,2,33601,50000,4615,40560,0,0,0,0,0.00,0.00,0.00,0.00
2013-10-13 07:30:00,2,43918,0,0.00,2,2,0,2,34934,50000,5170,45319,0,0,0,0,0.00,0.00,0.00,0.00
2013-10-13 07:40:00,2,28177,0,0.00,2,2,0,2,20777,36287,4804,27700,0,0,0,0,0.00,0.00,0.00,0.00
2013-10-13 07:50:00,2,21901,0,0.00,2,2,0,2,10387,40727,10141,17192,0,0,0,0,0.00,0.00,0.00,0.00
2013-10-13 08:00:00,2,10585,73,0.08,2,2,0,2,8576,16336,2403,9414,71,78,3,71,0.00,0.30,0.10,0.05
2013-10-13 08:10:00,2,17060,71,0.11,2,2,0,2,9779,27386,5479,16420,71,71,0,71,0.00,0.50,0.16,0.03
2013-10-13 08:20:00,2,10992,71,0.37,2,2,0,2,5871,22923,5894,8984,71,71,0,71,0.00,1.10,0.34,0.28
2013-10-13 08:30:00,2,10631,71,0.15,2,2,0,2,6565,15635,2912,9886,71,71,0,71,0.00,0.70,0.20,0.08
2013-10-13 08:40:00,2,17366,74,0.02,2,2,0,2,9243,23076,4492,19420,71,78,3,71,0.00,0.15,0.05,0.00
2013-10-13 08:50:00,2,18062,16,0.00,2,2,0,2,12109,28452,4676,16802,0,78,31,0,0.00,0.00,0.00,0.00
2013-10-13 09:00:00,2,23362,0,0.00,2,2,0,2,18000,34123,4256,22036,0,0,0,0,0.00,0.00,0.00,0.00
2013-10-13 09:10:00,2,19506,0,0.00,2,2,0,2,12301,26705,4652,18667,0,0,0,0,0.00,0.00,0.00,0.00
2013-10-13 09:20:00,2,18076,0,0.00,2,2,0,2,14712,27027,3378,17469,0,0,0,0,0.00,0.00,0.00,0.00
2013-10-13 09:30:00,2,16287,0,0.00,2,2,0,2,12107,23058,4040,14991,0,0,0,0,0.00,0.00,0.00,0.00
2013-10-13 09:40:00,2,23912,0,0.00,2,2,0,2,12793,32524,6774,25498,0,0,0,0,0.00,0.00,0.00,0.00
2013-10-13 09:50:00,2,11704,0,0.00,2,2,0,2,10068,13602,1279,11552,0,0,0,0,0.00,0.00,0.00,0.00
2013-10-13 10:00:00,2,10801,0,0.00,2,2,0,2,6837,15104,3053,10085,0,0,0,0,0.00,0.00,0.00,0.00
2013-10-13 10:10:00,2,4685,14,0.00,2,2,0,2,1958,8431,2660,2986,0,71,19,10,0.00,0.00,0.00,0.00
2013-10-13 10:20:00,2,2266,77,0.02,2,2,0,2,1783,3130,395,2172,71,78,2,78,0.00,0.10,0.03,0.00
2013-10-13 10:30:00,2,6643,78,0.00,2,2,0,2,2801,9389,2514,7262,78,78,0,78,0.00,0.00,0.00,0.00
2013-10-13 10:40:00,2,6236,44,0.00,2,2,0,2,4370,9261,1519,5868,10,78,34,44,0.00,0.00,0.00,0.00
2013-10-13 10:50:00,2,9269,16,0.00,2,2,0,2,6142,10929,1675,9924,10,71,18,10,0.00,0.00,0.00,0.00
2013-10-13 11:00:00,2,16019,74,0.03,2,2,0,2,8894,20427,3193,16760,71,78,3,71,0.00,0.05,0.03,0.03
2013-10-13 11:10:00,2,15012,68,0.00,2,2,0,2,8249,23644,5697,13214,0,78,23,77,0.00,0.00,0.00,0.00
2013-10-13 11:20:00,2,28295,0,0.00,2,2,0,2,18123,38764,7288,28636,0,0,0,0,0.00,0.00,0.00,0.00
2013-10-13 11:30:00,2,20036,0,0.00,2,2,0,2,6688,46778,15488,12269,0,0,0,0,0.00,0.00,0.00,0.00
2013-10-13 11:40:00,2,6884,8,0.00,2,2,0,2,3766,12092,2376,6620,0,10,4,10,0.00,0.00,0.00,0.00
2013-10-13 11:50:00,2,13548,7,0.00,2,2,0,2,7865,20755,4331,12503,0,10,5,10,0.00,0.00,0.00,0.00
2013-10-13 12:00:00,2,8097,3,0.00,2,2,0,2,5016,10345,1758,8176,0,10,5,0,0.00,0.00,0.00,0.00
2013-10-13 12:10:00,2,8037,22,0.00,2,2,0,2,4154,10826,2048,8249,10,71,24,10,0.00,0.00,0.00,0.00
2013-10-13 12:20:00,2,7817,78,0.00,2,2,0,2,4731,9678,1268,7871,78,78,0,78,0.00,0.00,0.00,0.00
2013-10-13 12:30:00,2,7284,78,0.00,2,2,0,2,5675,10074,1494,6876,78,78,0,78,0.00,0.00,0.00,0.00
2013-10-13 12:40:00,2,8440,78,0.00,2,2,0,2,6864,10590,1305,8101,78,78,0,78,0.00,0.00,0.00,0.00
2013-10-13 12:50:00,2,9800,10,0.00,2,2,0,2,6018,13613,2233,10218,10,10,0,10,0.00,0.00,0.00,0.00
2013-10-13 13:00:00,2,11282,8,0.00,2,2,0,2,7518,14707,2067,11226,0,10,4,10,0.00,0.00,0.00,0.00
2013-10-13 13:10:00,2,8791,1,0.00,2,2,0,2,5038,13486,2417,8052,0,10,3,0,0.00,0.00,0.00,0.00
2013-10-13 13:20:00,2,5719,10,0.00,2,2,0,2,3662,9217,1659,5328,10,10,0,10,0.00,0.00,0.00,0.00
2013-10-13 13:30:00,2,7506,10,0.00,2,2,0,2,4310,10508,1679,7668,10,10,0,10,0.00,0.00,0.00,0.00
2013-10-13 13:40:00,2,11244,10,0.00,2,2,0,2,7130,15397,2781,12069,10,10,0,10,0.00,0.00,0.00,0.00
2013-10-13 13:50:00,2,6635,10,0.00,2,2,0,2,4984,8101,937,6396,10,10,0,10,0.00,0.00,0.00,0.00
2013-10-13 14:00:00,2,10117,10,0.00,2,2,0,2,7483,11777,1330,10144,10,10,0,10,0.00,0.00,0.00,0.00
2013-10-13 14:10:00,2,10370,41,0.00,2,2,0,2,8655,12402,1369,10154,0,78,35,40,0.00,0.00,0.00,0.00
2013-10-13 14:20:00,2,10362,78,0.00,2,2,0,2,7518,13211,1620,10438,78,78,0,78,0.00,0.00,0.00,0.00
2013-10-13 14:30:00,2,10499,47,0.00,2,2,0,2,8494,12384,1158,10535,0,78,38,78,0.00,0.00,0.00,0.00
2013-10-13 14:40:00,2,21258,0,0.00,2,2,0,2,16486,23983,2733,22479,0,0,0,0,0.00,0.00,0.00,0.00
2013-10-13 14:50:00,2,15124,0,0.00,2,2,0,2,10465,21437,3737,14889,0,0,0,0,0.00,0.00,0.00,0.00
2013-10-13 15:00:00,2,17432,0,0.00,2,2,0,2,11586,22146,3403,17382,0,0,0,0,0.00,0.00,0.00,0.00
2013-10-13 15:10:00,2,11655,0,0.00,2,2,0,2,8989,14240,2076,11804,0,0,0,0,0.00,0.00,0.00,0.00
2013-10-13 15:20:00,2,27372,0,0.00,2,2,0,2,13869,47629,11495,23790,0,0,0,0,0.00,0.00,0.00,0.00
2013-10-13 15:30:00,2,41015,0,0.00,2,2,0,2,27001,50000,7223,41798,0,0,0,0,0.00,0.00,0.00,0.00
2013-10-13 15:40:00,2,40818,0,0.00,2,2,0,2,34777,46500,3859,40558,0,0,0,0,0.00,0.00,0.00,0.00
2013-10-13 15:50:00,2,35568,0,0.00,2,2,0,2,25990,41792,3967,36255,0,0,0,0,0.00,0.00,0.00,0.00
2013-10-13 16:00:00,2,20464,0,0.00,2,2,0,2,7933,39045,11159,14945,0,0,0,0,0.00,0.00,0.00,0.00
2013-10-13 16:10:00,2,14950,0,0.00,2,2,0,2,12815,19344,2080,14482,0,0,0,0,0.00,0.00,0.00,0.00
2013-10-13 16:20:00,2,15772,0,0.00,2,2,0,2,11598,23025,3370,15387,0,0,0,0,0.00,0.00,0.00,0.00
2013-10-13 16:30:00,2,16292,0,0.00,2,2,0,2,13414,18728,1541,16008,0,0,0,0,0.00,0.00,0.00,0.00
2013-10-13 16:40:00,2,17025,0,0.00,2,2,0,2,11649,26189,4459,16187,0,0,0,0,0.00,0.00,0.00,0.00
2013-10-13 16:50:00,2,18117,0,0.00,2,2,0,2,11647,22970,3814,18113,0,0,0,0,0.00,0.00,0.00,0.00
2013-10-13 17:00:00,2,16704,0,0.00,2,2,0,2,12073,20157,2482,17100,0,0,0,0,0.00,0.00,0.00,0.00
2013-10-13 17:10:00,2,28197,0,0.00,2,2,0,2,18686,43708,9424,23480,0,0,0,0,0.00,0.00,0.00,0.00
2013-10-13 17:20:00,2,38716,0,0.00,2,2,0,2,23508,50000,9121,42064,0,0,0,0,0.00,0.00,0.00,0.00
2013-10-13 17:30:00,2,20024,0,0.00,2,2,0,2,12346,33837,6195,19139,0,0,0,0,0.00,0.00,0.00,0.00
2013-10-13 17:40:00,2,13065,0,0.00,2,2,0,2,7111,21605,4174,12598,0,0,0,0,0.00,0.00,0.00,0.00
2013-10-13 17:50:00,2,9993,0,0.00,2,2,0,2,6961,12967,1767,9860,0,0,0,0,0.00,0.00,0.00,0.00
2013-10-13 18:00:00,2,11031,0,0.00,2,2,0,2,8614,17116,2271,10744,0,0,0,0,0.00,0.00,0.00,0.00
2013-10-13 18:10:00,2,22847,0,0.00,2,2,0,2,17155,29201,3920,21850,0,0,0,0,0.00,0.00,0.00,0.00
2013-10-13 18:20:00,2,25882,0,0.00,2,2,0,2,15065,45003,10102,20876,0,0,0,0,0.00,0.00,0.00,0.00
2013-10-13 18:30:00,2,50000,0,0.00,2,2,0,2,50000,50000,0,50000,0,0,0,0,0.00,0.00,0.00,0.00
2013-10-13 18:40:00,2,50000,0,0.00,2,2,0,2,50000,50000,0,50000,0,0,0,0,0.00,0.00,0.00,0.00
2013-10-13 18:50:00,2,50000,0,0.00,2,2,0,2,50000,50000,0,50000,0,0,0,0,0.00,0.00,0.00,0.00
2013-10-13 19:00:00,2,50000,0,0.00,2,2,0,2,50000,50000,0,50000,0,0,0,0,0.00,0.00,0.00,0.00
2013-10-13 19:10:00,2,50000,0,0.00,2,2,0,2,50000,50000,0,50000,0,0,0,0,0.00,0.00,0.00,0.00
2013-10-13 19:20:00,2,50000,0,0.00,2,2,0,2,50000,50000,0,50000,0,0,0,0,0.00,0.00,0.00,0.00
2013-10-13 19:30:00,2,50000,0,0.00,2,2,0,2,50000,50000,0,50000,0,0,0,0,0.00,0.00,0.00,0.00
2013-10-13 19:40:00,2,50000,0,0.00,2,2,0,2,50000,50000,0,50000,0,0,0,0,0.00,0.00,0.00,0.00
2013-10-13 19:50:00,2,50000,0,0.00,2,2,0,2,50000,50000,0,50000,0,0,0,0,0.00,0.00,0.00,0.00
2013-10-13 20:00:00,2,50000,0,0.00,2,2,0,2,50000,50000,0,50000,0,0,0,0,0.00,0.00,0.00,0.00
2013-10-13 20:10:00,2,50000,0,0.00,2,2,0,2,50000,50000,0,50000,0,0,0,0,0.00,0.00,0.00,0.00
2013-10-13 20:20:00,2,50000,0,0.00,2,2,0,2,50000,50000,0,50000,0,0,0,0,0.00,0.00,0.00,0.00
2013-10-13 20:30:00,2,50000,0,0.00,2,2,0,2,50000,50000,0,50000,0,0,0,0,0.00,0.00,0.00,0.00
2013-10-13 20:40:00,2,50000,0,0.00,2,2,0,2,50000,50000,0,50000,0,0,0,0,0.00,0.00,0.00,0.00
2013-10-13 20:50:00,2,50000,0,0.00,2,2,0,2,50000,50000,0,50000,0,0,0,0,0.00,0.00,0.00,0.00
2013-10-13 21:00:00,2,49979,0,0.00,2,2,0,2,49791,50000,63,50000,0,0,0,0,0.00,0.00,0.00,0.00
2013-10-13 21:10:00,2,50000,0,0.00,2,2,0,2,50000,50000,0,50000,0,0,0,0,0.00,0.00,0.00,0.00
2013-10-13 21:20:00,2,50000,0,0.00,2,2,0,2,50000,50000,0,50000,0,0,0,0,0.00,0.00,0.00,0.00
2013-10-13 21:30:00,2,50000,0,0.00,2,2,0,2,50000,50000,0,50000,0,0,0,0,0.00,0.00,0.00,0.00
2013-10-13 21:40:00,2,50000,0,0.00,2,2,0,2,50000,50000,0,50000,0,0,0,0,0.00,0.00,0.00,0.00
2013-10-13 21:50:00,2,50000,0,0.00,2,2,0,2,50000,50000,0,50000,0,0,0,0,0.00,0.00,0.00,0.00
2013-10-13 22:00:00,2,50000,0,0.00,2,2,0,2,50000,50000,0,50000,0,0,0,0,0.00,0.00,0.00,0.00
2013-10-13 22:10:00,2,50000,0,0.00,2,2,0,2,50000,50000,0,50000,0,0,0,0,0.00,0.00,0.00,0.00
2013-10-13 22:20:00,2,50000,0,0.00,2,2,0,2,50000,50000,0,50000,0,0,0,0,0.00,0.00,0.00,0.00
2013-10-13 22:30:00,2,50000,0,0.00,2,2,0,2,50000,50000,0,50000,0,0,0,0,0.00,0.00,0.00,0.00
2013-10-13 22:40:00,2,50000,0,0.00,2,2,0,2,50000,50000,0,50000,0,0,0,0,0.00,0.00,0.00,0.00
2013-10-13 22:50:00,2,50000,0,0.00,2,2,0,2,50000,50000,0,50000,0,0,0,0,0.00,0.00,0.00,0.00
2013-10-13 23:00:00,2,50000,0,0.00,2,2,0,2,50000,50000,0,50000,0,0,0,0,0.00,0.00,0.00,0.00
2013-10-13 23:10:00,2,50000,0,0.00,2,2,0,2,50000,50000,0,50000,0,0,0,0,0.00,0.00,0.00,0.00
2013-10-13 23:20:00,2,49921,0,0.00,2,2,0,2,49206,50000,238,50000,0,0,0,0,0.00,0.00,0.00,0.00
2013-10-13 23:30:00,2,49154,0,0.00,2,2,0,2,45572,50000,1441,50000,0,0,0,0,0.00,0.00,0.00,0.00
2013-10-13 23:40:00,2,49296,0,0.00,2,2,0,2,44552,50000,1651,50000,0,0,0,0,0.00,0.00,0.00,0.00
2013-10-13 23:50:00,2,49803,0,0.00,2,2,0,2,48677,50000,422,50000,0,0,0,0,0.00,0.00,0.00,0.00
